| time (UTC) | temp C | wind direction | speed KPH | gust KPH | rain 1hr cm | rain 24hr cm | rain mn cm | humidity % | barometer mb |
| 20260905141804 | 22 | 161 | 1.6 | 3.2 | 0.00 | 0.00 | 0.00 | 46 | 999.9 |
| 20260905140804 | 21 | 223 | 0.0 | 0.0 | 0.00 | 0.00 | 0.00 | 52 | 999.8 |
| 20260905140304 | 21 | 223 | 0.0 | 1.6 | 0.00 | 0.00 | 0.00 | 49 | 999.7 |
| 20260905135306 | 19 | 223 | 0.0 | 1.6 | 0.00 | 0.00 | 0.00 | 56 | 999.7 |
| 20260905134805 | 18 | 223 | 0.0 | 1.6 | 0.00 | 0.00 | 0.00 | 58 | 999.6 |
| 20260905133304 | 17 | 211 | 0.0 | 0.0 | 0.00 | 0.00 | 0.00 | 64 | 999.6 |
| 20260905132804 | 17 | 211 | 0.0 | 3.2 | 0.00 | 0.00 | 0.00 | 64 | 999.6 |
| 20260905132306 | 16 | 211 | 1.6 | 3.2 | 0.00 | 0.00 | 0.00 | 60 | 999.7 |
| 20260905131804 | 16 | 211 | 1.6 | 3.2 | 0.00 | 0.00 | 0.00 | 61 | 999.6 |
| 20260905130804 | 16 | 211 | 0.0 | 3.2 | 0.00 | 0.00 | 0.00 | 63 | 999.6 |
| 20260905125804 | 15 | 211 | 1.6 | 3.2 | 0.00 | 0.00 | 0.00 | 64 | 999.4 |
| 20260905123804 | 15 | 211 | 0.0 | 0.0 | 0.00 | 0.00 | 0.00 | 64 | 999.2 |
| 20260905122306 | 16 | 211 | 0.0 | 1.6 | 0.00 | 0.00 | 0.00 | 61 | 999.1 |
| 20260905121804 | 16 | 211 | 1.6 | 4.8 | 0.00 | 0.00 | 0.00 | 61 | 999.2 |
| 20260905121304 | 16 | 211 | 1.6 | 4.8 | 0.00 | 0.00 | 0.00 | 62 | 999.1 |
| 20260905120304 | 16 | 204 | 0.0 | 3.2 | 0.00 | 0.00 | 0.00 | 63 | 999.2 |
| 20260905115804 | 16 | 204 | 0.0 | 0.0 | 0.00 | 0.00 | 0.00 | 64 | 999.1 |
| 20260905115306 | 16 | 204 | 0.0 | 1.6 | 0.00 | 0.00 | 0.00 | 64 | 998.9 |
| 20260905114304 | 16 | 204 | 1.6 | 3.2 | 0.00 | 0.00 | 0.00 | 64 | 998.9 |
| 20260905112306 | 15 | 213 | 1.6 | 3.2 | 0.00 | 0.00 | 0.00 | 65 | 998.9 |
| 20260905111304 | 16 | 213 | 0.0 | 0.0 | 0.00 | 0.00 | 0.00 | 63 | 998.9 |
| 20260905110804 | 16 | 213 | 0.0 | 3.2 | 0.00 | 0.00 | 0.00 | 63 | 998.8 |
| 20260905110304 | 16 | 213 | 0.0 | 0.0 | 0.00 | 0.00 | 0.00 | 63 | 998.9 |
| 20260905105804 | 16 | 213 | 0.0 | 1.6 | 0.00 | 0.00 | 0.00 | 62 | 998.8 |
| 20260905104804 | 16 | 213 | 1.6 | 3.2 | 0.00 | 0.00 | 0.00 | 62 | 998.6 |
| 20260905104304 | 16 | 213 | 0.0 | 1.6 | 0.00 | 0.00 | 0.00 | 62 | 998.7 |
| 20260905103304 | 16 | 213 | 1.6 | 3.2 | 0.00 | 0.00 | 0.00 | 61 | 998.8 |
| 20260905102804 | 16 | 213 | 0.0 | 0.0 | 0.00 | 0.00 | 0.00 | 60 | 998.8 |
| 20260905101305 | 16 | 95 | 0.0 | 1.6 | 0.00 | 0.00 | 0.00 | 59 | 998.9 |
| 20260905100804 | 16 | 33 | 0.0 | 0.0 | 0.00 | 0.00 | 0.00 | 60 | 998.8 |
| 20260905100304 | 16 | 33 | 0.0 | 0.0 | 0.00 | 0.00 | 0.00 | 60 | 998.6 |
| 20260905095804 | 16 | 33 | 0.0 | 0.0 | 0.00 | 0.00 | 0.00 | 59 | 998.7 |
| 20260905095305 | 17 | 33 | 0.0 | 0.0 | 0.00 | 0.00 | 0.00 | 58 | 998.7 |
| 20260905094804 | 17 | 33 | 0.0 | 0.0 | 0.00 | 0.00 | 0.00 | 59 | 998.6 |
| 20260905094304 | 17 | 33 | 0.0 | 0.0 | 0.00 | 0.00 | 0.00 | 57 | 998.6 |
| 20260905092804 | 17 | 33 | 1.6 | 3.2 | 0.00 | 0.00 | 0.00 | 54 | 998.4 |
| 20260905092306 | 18 | 128 | 1.6 | 8.0 | 0.00 | 0.00 | 0.00 | 52 | 998.4 |
| 20260905091804 | 18 | 138 | 1.6 | 4.8 | 0.00 | 0.00 | 0.00 | 51 | 998.4 |
| 20260905091304 | 18 | 215 | 0.0 | 1.6 | 0.00 | 0.00 | 0.00 | 51 | 998.4 |
| 20260905085306 | 19 | 215 | 1.6 | 3.2 | 0.00 | 0.00 | 0.00 | 49 | 998.2 |
| 20260905084804 | 19 | 215 | 0.0 | 3.2 | 0.00 | 0.00 | 0.00 | 49 | 998.1 |
| 20260905083304 | 19 | 205 | 1.6 | 3.2 | 0.00 | 0.00 | 0.00 | 48 | 998.0 |
| 20260905082804 | 19 | 201 | 1.6 | 1.6 | 0.00 | 0.00 | 0.00 | 47 | 997.9 |
| 20260905082307 | 20 | 201 | 1.6 | 4.8 | 0.00 | 0.00 | 0.00 | 47 | 997.9 |
| 20260905081804 | 20 | 202 | 3.2 | 4.8 | 0.00 | 0.00 | 0.00 | 46 | 997.9 |
| 20260905081304 | 20 | 180 | 3.2 | 8.0 | 0.00 | 0.00 | 0.00 | 46 | 997.9 |
| 20260905080304 | 20 | 187 | 4.8 | 4.8 | 0.00 | 0.00 | 0.00 | 46 | 997.8 |
| 20260905075804 | 20 | 209 | 3.2 | 4.8 | 0.00 | 0.00 | 0.00 | 46 | 997.8 |
| 20260905075306 | 20 | 203 | 3.2 | 8.0 | 0.00 | 0.00 | 0.00 | 47 | 997.9 |
| 20260905074804 | 20 | 202 | 4.8 | 8.0 | 0.00 | 0.00 | 0.00 | 49 | 997.9 |
| 20260905073304 | 20 | 217 | 3.2 | 4.8 | 0.00 | 0.00 | 0.00 | 51 | 997.9 |
| 20260905072803 | 20 | 197 | 3.2 | 4.8 | 0.00 | 0.00 | 0.00 | 51 | 998.0 |
| 20260905072306 | 20 | 156 | 0.0 | 4.8 | 0.00 | 0.00 | 0.00 | 51 | 997.9 |
| 20260905064804 | 20 | 180 | 1.6 | 3.2 | 0.00 | 0.00 | 0.00 | 50 | 997.8 |
| 20260905063304 | 20 | 180 | 0.0 | 0.0 | 0.00 | 0.00 | 0.00 | 51 | 997.8 |
| 20260905060304 | 21 | 174 | 1.6 | 3.2 | 0.00 | 0.00 | 0.00 | 48 | 997.5 |
| 20260905055306 | 21 | 174 | 0.0 | 0.0 | 0.00 | 0.00 | 0.00 | 46 | 997.5 |
| 20260905054804 | 22 | 174 | 0.0 | 3.2 | 0.00 | 0.00 | 0.00 | 46 | 997.6 |
| 20260905053804 | 22 | 174 | 0.0 | 3.2 | 0.00 | 0.00 | 0.00 | 44 | 997.5 |
| 20260905053304 | 23 | 174 | 3.2 | 4.8 | 0.00 | 0.00 | 0.00 | 43 | 997.5 |
| 20260905052804 | 23 | 152 | 3.2 | 9.7 | 0.00 | 0.00 | 0.00 | 42 | 997.5 |
| 20260905052306 | 23 | 121 | 4.8 | 8.0 | 0.00 | 0.00 | 0.00 | 42 | 997.5 |
| 20260905051304 | 22 | 117 | 3.2 | 8.0 | 0.00 | 0.00 | 0.00 | 42 | 997.6 |
| 20260905050304 | 22 | 157 | 0.0 | 4.8 | 0.00 | 0.00 | 0.00 | 42 | 997.7 |
| 20260905045305 | 22 | 142 | 1.6 | 3.2 | 0.00 | 0.00 | 0.00 | 42 | 997.8 |
| 20260905044804 | 22 | 253 | 0.0 | 1.6 | 0.00 | 0.00 | 0.00 | 41 | 997.7 |
| 20260905044304 | 22 | 253 | 0.0 | 3.2 | 0.00 | 0.00 | 0.00 | 40 | 997.7 |
| 20260905043805 | 23 | 253 | 1.6 | 3.2 | 0.00 | 0.00 | 0.00 | 40 | 997.6 |
| 20260905042804 | 23 | 208 | 0.0 | 0.0 | 0.00 | 0.00 | 0.00 | 38 | 997.6 |
| 20260905041304 | 25 | 208 | 1.6 | 4.8 | 0.00 | 0.00 | 0.00 | 35 | 997.7 |
| 20260905040804 | 25 | 195 | 3.2 | 8.0 | 0.00 | 0.00 | 0.00 | 35 | 997.7 |
| 20260905035306 | 25 | 119 | 3.2 | 11.3 | 0.00 | 0.00 | 0.00 | 35 | 997.8 |
| 20260905034303 | 24 | 106 | 1.6 | 9.7 | 0.00 | 0.00 | 0.00 | 35 | 997.8 |
| 20260905033304 | 25 | 63 | 0.0 | 3.2 | 0.00 | 0.00 | 0.00 | 34 | 997.7 |
| 20260905032306 | 25 | 63 | 1.6 | 3.2 | 0.00 | 0.00 | 0.00 | 33 | 997.6 |
| 20260905031804 | 25 | 42 | 1.6 | 8.0 | 0.00 | 0.00 | 0.00 | 33 | 997.6 |
| 20260905031304 | 25 | 28 | 3.2 | 4.8 | 0.00 | 0.00 | 0.00 | 33 | 997.5 |
| 20260905025306 | 26 | 41 | 3.2 | 9.7 | 0.00 | 0.00 | 0.00 | 30 | 997.5 |
| 20260905024804 | 26 | 48 | 4.8 | 11.3 | 0.00 | 0.00 | 0.00 | 30 | 997.4 |
| 20260905023804 | 26 | 61 | 3.2 | 8.0 | 0.00 | 0.00 | 0.00 | 31 | 997.2 |
| 20260905023304 | 27 | 31 | 3.2 | 4.8 | 0.00 | 0.00 | 0.00 | 30 | 997.1 |
| 20260905022306 | 27 | 59 | 3.2 | 4.8 | 0.00 | 0.00 | 0.00 | 29 | 997.1 |
| 20260905020804 | 27 | 50 | 1.6 | 4.8 | 0.00 | 0.00 | 0.00 | 29 | 997.1 |
| 20260905015803 | 28 | 42 | 1.6 | 4.8 | 0.00 | 0.00 | 0.00 | 28 | 997.0 |
| 20260905014803 | 28 | 41 | 1.6 | 4.8 | 0.00 | 0.00 | 0.00 | 27 | 996.9 |
| 20260905013804 | 29 | 67 | 4.8 | 9.7 | 0.00 | 0.00 | 0.00 | 26 | 996.9 |
| 20260905013304 | 29 | 70 | 4.8 | 12.9 | 0.00 | 0.00 | 0.00 | 26 | 996.9 |
| 20260905011804 | 29 | 74 | 4.8 | 11.3 | 0.00 | 0.00 | 0.00 | 25 | 996.6 |
| 20260905011304 | 30 | 67 | 4.8 | 9.7 | 0.00 | 0.00 | 0.00 | 25 | 996.6 |
| 20260905010804 | 30 | 61 | 4.8 | 9.7 | 0.00 | 0.00 | 0.00 | 25 | 996.5 |
| 20260905005804 | 30 | 87 | 4.8 | 12.9 | 0.00 | 0.00 | 0.00 | 25 | 996.4 |
| 20260905004804 | 30 | 64 | 6.4 | 12.9 | 0.00 | 0.00 | 0.00 | 24 | 996.6 |
| 20260905004304 | 31 | 82 | 6.4 | 22.5 | 0.00 | 0.00 | 0.00 | 24 | 996.6 |
| 20260905003804 | 31 | 94 | 9.7 | 19.3 | 0.00 | 0.00 | 0.00 | 24 | 996.7 |
| 20260905002306 | 31 | 94 | 9.7 | 20.9 | 0.00 | 0.00 | 0.00 | 24 | 996.5 |
| 20260905001304 | 31 | 99 | 8.0 | 19.3 | 0.00 | 0.00 | 0.00 | 23 | 996.4 |
| 20260904235804 | 32 | 86 | 9.7 | 19.3 | 0.00 | 0.00 | 0.00 | 23 | 996.2 |
| 20260904235306 | 32 | 93 | 6.4 | 22.5 | 0.00 | 0.00 | 0.00 | 23 | 996.2 |
| 20260904233804 | 32 | 74 | 14.5 | 22.5 | 0.00 | 0.00 | 0.00 | 22 | 996.1 |
| 20260904233303 | 32 | 63 | 9.7 | 19.3 | 0.00 | 0.00 | 0.00 | 22 | 996.1 |
| 20260904232804 | 32 | 82 | 14.5 | 27.4 | 0.00 | 0.00 | 0.00 | 21 | 996.1 |
| 20260904230804 | 32 | 73 | 9.7 | 19.3 | 0.00 | 0.00 | 0.00 | 21 | 996.0 |
| 20260904225305 | 33 | 73 | 9.7 | 19.3 | 0.00 | 0.00 | 0.00 | 21 | 996.0 |
| 20260904223304 | 33 | 76 | 8.0 | 29.0 | 0.00 | 0.00 | 0.00 | 20 | 996.0 |
| 20260904222804 | 32 | 87 | 12.9 | 29.0 | 0.00 | 0.00 | 0.00 | 20 | 996.0 |
| 20260904222306 | 33 | 73 | 12.9 | 22.5 | 0.00 | 0.00 | 0.00 | 19 | 996.0 |
| 20260904221804 | 33 | 60 | 8.0 | 19.3 | 0.00 | 0.00 | 0.00 | 19 | 996.1 |
| 20260904221304 | 33 | 71 | 8.0 | 19.3 | 0.00 | 0.00 | 0.00 | 19 | 996.1 |
| 20260904220304 | 33 | 89 | 8.0 | 14.5 | 0.00 | 0.00 | 0.00 | 17 | 996.2 |
| 20260904214804 | 33 | 59 | 9.7 | 19.3 | 0.00 | 0.00 | 0.00 | 17 | 996.1 |
| 20260904214303 | 33 | 82 | 9.7 | 19.3 | 0.00 | 0.00 | 0.00 | 18 | 996.2 |
| 20260904213304 | 33 | 68 | 11.3 | 19.3 | 0.00 | 0.00 | 0.00 | 17 | 996.5 |
| 20260904212306 | 33 | 86 | 9.7 | 19.3 | 0.00 | 0.00 | 0.00 | 17 | 996.5 |
| 20260904211803 | 32 | 73 | 6.4 | 24.1 | 0.00 | 0.00 | 0.00 | 18 | 996.5 |
| 20260904211304 | 32 | 58 | 1.6 | 14.5 | 0.00 | 0.00 | 0.00 | 17 | 996.5 |
| 20260904210803 | 32 | 88 | 8.0 | 16.1 | 0.00 | 0.00 | 0.00 | 19 | 996.7 |
| 20260904205305 | 32 | 75 | 9.7 | 19.3 | 0.00 | 0.00 | 0.00 | 18 | 996.8 |
| 20260904204804 | 32 | 73 | 11.3 | 20.9 | 0.00 | 0.00 | 0.00 | 19 | 997.1 |
| 20260904204303 | 32 | 101 | 12.9 | 19.3 | 0.00 | 0.00 | 0.00 | 20 | 997.1 |
| 20260904203804 | 32 | 119 | 11.3 | 20.9 | 0.00 | 0.00 | 0.00 | 20 | 997.1 |
| 20260904202306 | 33 | 127 | 11.3 | 22.5 | 0.00 | 0.00 | 0.00 | 22 | 997.6 |
| 20260904201804 | 32 | 100 | 12.9 | 25.7 | 0.00 | 0.00 | 0.00 | 22 | 997.6 |
| 20260904200804 | 32 | 78 | 14.5 | 22.5 | 0.00 | 0.00 | 0.00 | 20 | 997.8 |
| 20260904200304 | 32 | 118 | 8.0 | 14.5 | 0.00 | 0.00 | 0.00 | 21 | 997.8 |
| 20260904195804 | 32 | 107 | 16.1 | 25.7 | 0.00 | 0.00 | 0.00 | 21 | 998.1 |
| 20260904194303 | 32 | 97 | 11.3 | 22.5 | 0.00 | 0.00 | 0.00 | 21 | 998.1 |
| 20260904193803 | 32 | 145 | 12.9 | 22.5 | 0.00 | 0.00 | 0.00 | 19 | 998.1 |
| 20260904192803 | 32 | 105 | 9.7 | 20.9 | 0.00 | 0.00 | 0.00 | 21 | 998.2 |
| 20260904192306 | 33 | 114 | 14.5 | 19.3 | 0.00 | 0.00 | 0.00 | 19 | 998.4 |
| 20260904191803 | 32 | 94 | 9.7 | 22.5 | 0.00 | 0.00 | 0.00 | 18 | 998.3 |
| 20260904191304 | 32 | 102 | 14.5 | 24.1 | 0.00 | 0.00 | 0.00 | 18 | 998.3 |
| 20260904190304 | 32 | 65 | 9.7 | 22.5 | 0.00 | 0.00 | 0.00 | 20 | 998.5 |
| 20260904185306 | 32 | 172 | 16.1 | 29.0 | 0.00 | 0.00 | 0.00 | 18 | 998.7 |
| 20260904184803 | 32 | 167 | 12.9 | 20.9 | 0.00 | 0.00 | 0.00 | 20 | 998.6 |
| 20260904183804 | 32 | 207 | 9.7 | 19.3 | 0.00 | 0.00 | 0.00 | 19 | 998.6 |
| 20260904183304 | 31 | 153 | 9.7 | 24.1 | 0.00 | 0.00 | 0.00 | 20 | 998.7 |
| 20260904182306 | 31 | 94 | 9.7 | 19.3 | 0.00 | 0.00 | 0.00 | 22 | 998.9 |
| 20260904181304 | 31 | 153 | 12.9 | 24.1 | 0.00 | 0.00 | 0.00 | 21 | 999.0 |
| 20260904180804 | 32 | 167 | 11.3 | 19.3 | 0.00 | 0.00 | 0.00 | 21 | 999.0 |
| 20260904180304 | 31 | 114 | 11.3 | 20.9 | 0.00 | 0.00 | 0.00 | 23 | 999.1 |
| 20260904175804 | 31 | 151 | 9.7 | 14.5 | 0.00 | 0.00 | 0.00 | 22 | 999.1 |
| 20260904175305 | 31 | 123 | 9.7 | 19.3 | 0.00 | 0.00 | 0.00 | 22 | 999.1 |
| 20260904173304 | 31 | 177 | 9.7 | 16.1 | 0.00 | 0.00 | 0.00 | 23 | 999.3 |
| 20260904171303 | 30 | 151 | 6.4 | 19.3 | 0.00 | 0.00 | 0.00 | 26 | 999.4 |
| 20260904165305 | 28 | 162 | 9.7 | 16.1 | 0.00 | 0.00 | 0.00 | 26 | 999.6 |
| 20260904164803 | 28 | 166 | 9.7 | 16.1 | 0.00 | 0.00 | 0.00 | 28 | 999.6 |
| 20260904163804 | 27 | 156 | 8.0 | 12.9 | 0.00 | 0.00 | 0.00 | 27 | 999.6 |
| 20260904163305 | 27 | 174 | 9.7 | 14.5 | 0.00 | 0.00 | 0.00 | 28 | 999.6 |
| 20260904162306 | 27 | 139 | 8.0 | 14.5 | 0.00 | 0.00 | 0.00 | 29 | 999.8 |
| 20260904161804 | 26 | 161 | 9.7 | 16.1 | 0.00 | 0.00 | 0.00 | 28 | 999.8 |
| 20260904160804 | 26 | 172 | 9.7 | 19.3 | 0.00 | 0.00 | 0.00 | 29 | 999.9 |
| 20260904160304 | 26 | 177 | 9.7 | 16.1 | 0.00 | 0.00 | 0.00 | 29 | 999.9 |
| 20260904154804 | 25 | 154 | 8.0 | 14.5 | 0.00 | 0.00 | 0.00 | 31 | 999.8 |
| 20260904154304 | 24 | 176 | 9.7 | 19.3 | 0.00 | 0.00 | 0.00 | 32 | 999.8 |
| 20260904153804 | 24 | 152 | 9.7 | 16.1 | 0.00 | 0.00 | 0.00 | 34 | 999.7 |
| 20260904153304 | 23 | 161 | 11.3 | 22.5 | 0.00 | 0.00 | 0.00 | 33 | 999.7 |
| 20260904152804 | 23 | 151 | 8.0 | 19.3 | 0.00 | 0.00 | 0.00 | 33 | 999.7 |
| 20260904152306 | 23 | 161 | 11.3 | 20.9 | 0.00 | 0.00 | 0.00 | 36 | 999.7 |
| 20260904151804 | 23 | 132 | 9.7 | 14.5 | 0.00 | 0.00 | 0.00 | 35 | 999.7 |
| 20260904151303 | 23 | 147 | 6.4 | 11.3 | 0.00 | 0.00 | 0.00 | 38 | 999.8 |
| 20260904150304 | 22 | 162 | 4.8 | 9.7 | 0.00 | 0.00 | 0.00 | 38 | 999.8 |
| 20260904145804 | 22 | 179 | 9.7 | 12.9 | 0.00 | 0.00 | 0.00 | 37 | 999.8 |
| 20260904144804 | 21 | 165 | 6.4 | 11.3 | 0.00 | 0.00 | 0.00 | 38 | 999.8 |